Home > Weather > Plymouth > Past weeks

Flag for United Kingdom Past Weather in Plymouth, England, United Kingdom — Yesterday and Last 2 Weeks

Now
61 °F

Passing clouds.


Feels Like: 61 °F
Forecast: 58 / 67 °F
Wind: 1 mph from North

Location: Exeter Airport

Current Time: Jul 25, 2016 at 9:13:08 AM

Latest Report: Jul 25, 2016 at 7:50 AM


Visibility: N/A

Pressure: 30.12 "Hg

Humidity: 88%

Dew Point: 57 °F

Location of PlymouthLocation

Past Weather in Plymouth — Graph

°F

Plymouth Temperature Yesterday

Maximum temperature yesterday: 70 °F (at 3:50 PM)
Minimum temperature yesterday: 59 °F (at 10:50 PM)
Average temperature yesterday: 64 °F

High & Low Weather Summary for the Past Weeks

 TemperatureHumidityPressure
High79 °F (Jul 17, 3:50 PM)100% (Jul 13, 5:50 AM)30.36 "Hg (Jul 13, 5:50 AM)
Low45 °F (Jul 13, 5:20 AM)43% (Jul 13, 3:50 PM)29.71 "Hg (Jul 11, 2:20 AM)
Average65 °F76%30.08 "Hg
* Reported Jul 10 7:20 AM — Jul 25 7:50 AM, Plymouth, Weather by CustomWeather, © 2016

Note: Actual official high and low records may vary slightly from our data, if they occured in-between our weather recording intervals... More about our weather records

Advertising

Plymouth Weather History for the Previous 24 Hours

Scroll right to see more
 ConditionsComfort  
Time TempWeatherWind HumidityBarometerVisibility
7:50 AM
Mon, Jul 25
61 °FPassing clouds.1 mph88%30.12 "HgN/A
7:20 AM59 °FPassing clouds.3 mph88%30.12 "HgN/A
6:50 AM55 °FPassing clouds.2 mph94%30.12 "HgN/A
6:20 AM55 °FPassing clouds.3 mph94%30.09 "HgN/A
5:50 AM55 °FPassing clouds.5 mph88%30.09 "HgN/A
5:20 AM54 °FPassing clouds.5 mph94%30.09 "HgN/A
2:50 AM59 °FPassing clouds.3 mph82%30.12 "HgN/A
12:50 AM59 °FPassing clouds.6 mph88%30.09 "HgN/A
12:20 AM59 °FPassing clouds.7 mph88%30.12 "HgN/A
11:50 PM
Sun, Jul 24
59 °FPassing clouds.7 mph82%30.09 "HgN/A
11:20 PM59 °FClear.6 mph82%30.09 "Hg10 mi
10:50 PM59 °FClear.5 mph88%30.09 "Hg10 mi
10:20 PM61 °FPassing clouds.6 mph77%30.09 "HgN/A
9:50 PM61 °FPassing clouds.7 mph83%30.09 "HgN/A
9:20 PM63 °FPassing clouds.8 mph77%30.09 "HgN/A
8:50 PM63 °FPassing clouds.9 mph83%30.09 "HgN/A
8:20 PM66 °FPassing clouds.12 mph78%30.07 "HgN/A
7:50 PM66 °FPassing clouds.12 mph83%30.07 "HgN/A
7:20 PM68 °FScattered clouds.12 mph83%30.07 "HgN/A
6:50 PM68 °FPartly sunny.9 mph83%30.07 "HgN/A
6:20 PM68 °FPartly sunny.13 mph83%30.04 "HgN/A
5:50 PM70 °FPartly sunny.8 mph83%30.04 "HgN/A
5:20 PM70 °FScattered clouds.8 mph83%30.04 "HgN/A
4:50 PM68 °FScattered clouds.12 mph88%30.04 "HgN/A
4:20 PM70 °FLight rain. Broken clouds.5 mph88%30.04 "HgN/A
3:50 PM70 °FPartly sunny.10 mph88%30.04 "HgN/A
3:20 PM68 °FScattered showers. Broken clouds.8 mph94%30.07 "HgN/A
2:50 PM66 °FBroken clouds.9 mph94%30.07 "HgN/A
2:20 PM66 °FBroken clouds.8 mph94%30.07 "HgN/A
1:50 PM66 °FLight rain. Broken clouds.10 mph88%30.07 "Hg3 mi
1:20 PM68 °FPartly sunny.13 mph78%30.09 "HgN/A
12:50 PM66 °FPartly sunny.10 mph83%30.09 "HgN/A
12:20 PM64 °FBroken clouds.8 mph88%30.09 "HgN/A
11:50 AM66 °FLight rain. Broken clouds.10 mph78%30.09 "Hg5 mi
11:20 AM68 °FPartly sunny.7 mph69%30.09 "HgN/A
10:50 AM66 °FPartly sunny.7 mph73%30.09 "HgN/A
10:20 AM64 °FPartly sunny.7 mph78%30.09 "HgN/A
9:50 AM64 °FScattered clouds.6 mph78%30.09 "HgN/A
9:20 AM63 °FScattered clouds.5 mph83%30.09 "HgN/A
Weather by CustomWeather, © 2016

See weather overviewHow to use our weather pages